Regional Weather Roundup
Issued by NWS Little Rock, AR

Home | Current Version | Previous Version | Text Only | Print | Product List | Glossary On
Versions: 1 2 3 4 5 6 7 8 9 10 11 12 13 14 15 16 17 18 19 20 21 22 23 24 25 26 27 28 29 30 31 32 33 34 35 36 37 38 39 40 41 42 43 44 45 46 47 48 49 50
000
ASUS44 KLZK 302010
RWRLZK

WEATHER ROUNDUP FOR ARKANSAS
NATIONAL WEATHER SERVICE LITTLE ROCK AR
200 PM CST MON JAN 30 2023

NOTE: "FAIR" INDICATES FEW OR NO CLOUDS BELOW 12,000 FEET WITH NO
SIGNIFICANT WEATHER AND/OR OBSTRUCTIONS TO VISIBILITY.

ARZ001-010-029-103-302100-
NORTHWEST ARKANSAS

CITY           SKY/WX    TMP DP  RH WIND       PRES   REMARKS
FAYETTEVILLE   CLOUDY    25  21  85 NW9       30.29S WCI  15
FORT SMITH     FRZ RAIN  30  28  92 W7        30.28F FOG     WCI  23
HARRISON       CLOUDY    22  20  92 N7        30.26F WCI  13
BENTONVILLE    LGT SNOW  19  18  93 NE9       30.27F VSB 3/4 WCI   9
ROGERS         SNOW      20  17  88 N8        30.28S VSB 1/2 WCI  10
SILOAM SPGS    LGT SNOW  19  18  95 N8        30.29S FOG     WCI   9
HIGHFILL       SLEET     20  18  92 N10       30.25F VSB 1/2 WCI   9
SPRINGDALE     CLOUDY    23  23 100 N6        30.26F FOG     WCI  16
$$

ARZ004-005-016-302100-
NORTH CENTRAL ARKANSAS

CITY           SKY/WX    TMP DP  RH WIND       PRES   REMARKS
BATESVILLE     CLOUDY    29  27  92 N8        30.28F WCI  21
FLIPPIN        CLOUDY    25  22  88 N8        30.30F WCI  16
MTN HOME       MIX PCPN  23  20  88 VRB5      30.25F WCI  17
$$

ARZ140-141-302100-
WEST CENTRAL ARKANSAS

CITY           SKY/WX    TMP DP  RH WIND       PRES   REMARKS
MENA           CLOUDY    31  30  97 NE8       30.22F WCI  24
MOUNT IDA      CLOUDY    35  31  85 NW6       30.21F WCI  30
$$

ARZ009-017-025-026-028-302100-
NORTHEAST ARKANSAS

CITY           SKY/WX    TMP DP  RH WIND       PRES   REMARKS
JONESBORO      CLOUDY    31  28  89 N14       30.32R WCI  21
NEWPORT        LGT SNOW  32  30  92 N14       30.29F FOG     WCI  22
WALNUT RIDGE   MIX PCPN  30  29  96 N10       30.32F FOG     WCI  21
BLYTHEVILLE    CLOUDY    31  29  92 N16       30.30R WCI  20
$$

ARZ032-043-044-302100-
LITTLE ROCK METRO AREA

CITY           SKY/WX    TMP DP  RH WIND       PRES   REMARKS
LITTLE ROCK    CLOUDY    36  32  85 N10       30.27F
N LTL ROCK NWS   N/A     32  30  90 N5        30.25F WCI  28
NLR AIRPORT      N/A    N/A N/A N/A MISG        N/A
JACKSONVILLE   CLOUDY    35  31  86 NE7       30.25F WCI  29
CONWAY         CLOUDY    36  36 100 NE12      30.26F
$$

ARZ033-042-122-123-302100-
REMAINDER OF CENTRAL ARKANSAS

CITY           SKY/WX    TMP DP  RH WIND       PRES   REMARKS
SEARCY         CLOUDY    33  30  88 N10       30.29F WCI  25
HOT SPRINGS    CLOUDY    37  35  92 E6        30.23F
RUSSELLVILLE   CLOUDY    35  29  78 NE7       30.25F WCI  29
CLINTON        CLOUDY    32  27  80 VRB6      30.28F WCI  26
$$

ARZ036-302100-
EAST ARKANSAS

CITY           SKY/WX    TMP DP  RH WIND       PRES   REMARKS
WEST MEMPHIS   CLOUDY    33  31  92 N10       30.27F WCI  25
$$

ARZ050-053-066-070-072-073-302100-
SOUTHWEST ARKANSAS

CITY           SKY/WX    TMP DP  RH WIND       PRES   REMARKS
ARKADELPHIA    CLOUDY    39  36  89 VRB6      30.26F
CAMDEN         CLOUDY    41  41 100 N7G13     30.23F
TEXARKANA      CLOUDY    42  38  85 VRB7G16   30.21F FOG
MAGNOLIA       CLOUDY    43  43 100 VRB7      30.19S
EL DORADO      CLOUDY    43  42  97 N7        30.20F FOG
DE QUEEN       CLOUDY    40  35  83 NE5       30.20F
$$

ARZ056-057-069-302100-
SOUTHEAST ARKANSAS

CITY           SKY/WX    TMP DP  RH WIND       PRES   REMARKS
PINE BLUFF     CLOUDY    37  35  92 N14       30.25F
STUTTGART      CLOUDY    35  32  88 NE17      30.27F WCI  25
MONTICELLO     CLOUDY    40  38  93 NE7       30.23F

$$





USA.gov is the U.S. government's official web portal to all federal, state and local government web resources and services.